SL-12 R/B(2), 32278

Orbit data source: Space-Track

SL-12 R/B(2), 32278 is space debris in MEO originally from a launch on Fri, 26 Oct 2007 UTC launched from the Tyuratam Missile And Space Complex (TTMTR). Debris objects in space refer to the collection of defunct objects orbiting the Earth. Examples of debris include non-operational satellites, rocket bodies, and fragments generated from explosions, collisions, or faulty payload assembly.

Loading next visibility...
Identifier
32278, 2007-052D
Orbit
MEO
Last TLE update
2 days ago
Origin
Manufacturer
RKKE
Mission
Spacecraft
Bus & Motor
BLOK DM2, 11D58M
Mass
2,440 kg wet, 2,440 kg dry
Launch date (UTC)
2007-10-26 (18 years ago)
Launch vehicle
Unknown
Launch site
Tyuratam Missile And Space Complex (TTMTR)
Object type
Payload
Rocket body
Debris
Shape & HBR
Cyl, 7.1 m
Radar Cross Section
26.008 m², Large (>1 m²)

Expand to show TLE details & history

TLE from 2 days ago
0 SL-12 R/B(2)
1 32278U 07052D   25185.36246932 -.00000076  00000-0  00000-0 0  9996
2 32278  65.7610 327.0159 0017855 196.8795 168.1542  2.13394130137720
Epoch: 2025-07-04T08:41Z
TLE epoch observation values (Epoch: 2025-07-04T08:41:57.349Z)
Latitude
4.63653°
Longitude
-84.01327°
Altitude
19,151.205 km
Speed
3.948 km/s
True Right ascension
21h 56m 21s
True Declination
4° 37' 44"
Sunlit
Object was in daylight at epoch
Visualization orbit readout
Latitude
-36.57886°
Longitude
-105.65199°
Altitude
19,143.236 km
Speed
3.95 km/s
Apparent Right ascension
21h 23m 51s
Apparent Declination
-45° 31' 35"
Sunlit
Object is in daylight
Visualization observer readout
Local Sidereal Time
16:12:10
Azimuth
133.113° SE
Elevation
-20.208°
Doppler factor
1
Orbital elements
Apogee altitude
19,151.693 km
Perigee altitude
19,060.689 km
Semi-major axis
25,484.328 km
Eccentricity
0.00179
Inclination
65.761°
RAAN
327.0159°
Arg. of periapsis
196.8795°
True anomaly
Unknown
Mean anomaly
168.1542°
Eccentric anomaly
Unknown
Mean motion
0.5335 °/min
Orbital period
674.79 mins
BSTAR
0
Loading maneuver chart data...
Loading SW <> Apogee altitude chart data...
Loading historical data...
Loading historical data...
Loading historical data...
Loading historical data...
Loading historical data...
Loading historical data...
Loading historical data...

SL-12 R/B(2) Visibility forecast

Observer location: undefined°, undefined°

Span
Click to sort rows by Start time (UTC) header in descending order
Start Az.
Max El. time (UTC)
Max El. Az.
Max El.
End time (UTC)
End Az.
163 mins2025-07-06 05:47:01.994Z101.214° ESE2025-07-06 07:10:01.994Z58.879° ENE25.714°2025-07-06 08:30:01.994Z22.948° NE
280 mins2025-07-06 18:35:01.994Z316.069° NNW2025-07-06 21:03:01.994Z264.538° W44.526°2025-07-06 23:15:01.994Z189.933° SSW
|